MIDAS 5 DEB, 19981

Orbit data source: Space-Track

MIDAS 5 DEB, 19981 is space debris in LEO originally from a launch on Mon, 09 Apr 1962 UTC launched from the Air Force Western Test Range (AFWTR). Debris objects in space refer to the collection of defunct objects orbiting the Earth. Examples of debris include non-operational satellites, rocket bodies, and fragments generated from explosions, collisions, or faulty payload assembly.

Loading next visibility...
Identifier
19981, 1962-010H
Orbit
LEO
Country
Flag of USUS
Related business
Manufacturer
MIT-LL
Mission
Spacecraft
Bus & Motor
WESTFORD DRAG, Unknown motor
Mass
~1 kg wet, ~1 kg dry
Launch date (UTC)
1962-04-09 (64 years ago)
Launch vehicle
Unknown
Launch site
Air Force Western Test Range (AFWTR)
Object type
Payload
Rocket body
Debris
Shape & HBR
CYL, 0.1 m
Radar Cross Section
Medium (>0.1 m² and <1 m²)

Expand to show TLE details & history
Last TLE update: 5 days ago

TLE from 5 days ago
0 MIDAS 5 DEB
1 19981U 62010H   26249.52408356 -.00000005  00000-0 -18759-2 0  9992
2 19981  86.6672 303.1067 0338885 191.2609 168.0566  9.43013929313186
Epoch: 2026-09-06T12:34Z
TLE epoch observation values (Epoch: 2026-09-06T12:34:40.819Z)
Latitude
-0.00004°
Longitude
128.81865°
Altitude
3,402.022 km
Speed
6.278 km/s
True Right ascension
20h 12m 25s
True Declination
0° 00' 00"
Sunlit
Object was in daylight at epoch
Visualization orbit readout
Latitude
Unknown
Longitude
Unknown
Altitude
Unknown
Speed
Unknown
Apparent Right ascension
Unknown
Apparent Declination
Unknown
Sunlit
N/A
Visualization observer readout
Local Sidereal Time
13:17:49
Azimuth
Unknown
Elevation
Unknown
Doppler factor
Unknown
Orbital elements
Apogee altitude
3,403.793 km
Perigee altitude
2,762.534 km
Semi-major axis
9,461.3 km
Eccentricity
0.03389
Inclination
86.6672°
RAAN
303.1067°
Arg. of periapsis
191.2609°
True anomaly
168.82819°
Mean anomaly
168.0566°
Eccentric anomaly
168.44552°
Mean motion
2.3584 °/min
Orbital period
152.65 mins
BSTAR
-0.0018759
Loading maneuver chart data...
Computing Atmospheric mass density...
Loading historical data...
Loading historical data...
Loading historical data...
Loading historical data...
Loading historical data...
Loading historical data...
Loading historical data...

Documentation

Showing up to 5 results
|